Location: JKWMA (FRAC)
(33.1803°N, 84.5512°W)
Time: 20:30:34
(UTC-04:00)

Hubble Space Telescope - Pass Details

Date: 28 March 2019
Orbit: 537 x 540 km, 28.5° (Epoch: 20 April)

Event Time Altitude Azimuth Distance (km) Brightness Sun altitude
Rises 20:14:12 0° 249° (WSW) 2,669 5.6 -4.7°
Reaches altitude 10° 20:16:33 10° 241° (WSW) 1,780 4.3 -5.2°
Maximum altitude 20:20:24 38° 172° (S) 823 1.6 -6.0°
Drops below altitude 10° 20:24:14 10° 104° (ESE) 1,784 2.7 -6.8°
Enters shadow 20:24:34 - 102° (ESE) 1,904 2.9 -6.9°
